Houma, LA

6:47 PM CDT on September 02, 2015 (GMT -0500)
Ellendale Farms | | Change Station
CLOSE
Current Station
Personal Weather Station
Location: Houma, LA
Elevation: 26 ft
Nearby Weather Stations

Elev 26 ft 29.63 °N, 90.81 °W | Updated 10 seconds ago

Partly Cloudy
Partly Cloudy
78.5 °F
Feels Like 82 °F
N
0.0
Wind Variable Wind from South
Gusts 0.0 mph

Today
High -- | Low -- °F
--% Chance of Precip.
Yesterday
High -- | Low -- °F
Precip. -- in
6:40 AM 7:24 PM
Waning Gibbous, 76% visible
Pressure 30.00 in
Visibility 10.0 miles
Clouds Scattered Clouds 2000 ft
Heat Index 82 °F
Dew Point 74 °F
Humidity 88%
Rainfall 0.09 in
Snow Depth Not available.
UV 1 out of 12
Pollen 7.90 out of 12
Air Quality Not available.
Flu Activity Not available.
SPECI K7R3 022247Z 18004KT 10SM SCT020 27/23 A3000
Pressure 30.00 in
Visibility 10.0 miles
Clouds Scattered Clouds 2000 ft
Heat Index 82 °F
Dew Point 74 °F
Humidity 88%
Rainfall 0.09 in
Snow Depth Not available.
UV 1 out of 12
Pollen 7.90 out of 12
Air Quality Not available.
Flu Activity Not available.
SPECI K7R3 022247Z 18004KT 10SM SCT020 27/23 A3000

10-Day Weather Forecast

×

Almanac

Astronomy

Sep. 02, 2015 Rise Set
Actual Time
Civil Twilight
Nautical Twilight
Astronomical Twilight
Moon
Length of Visible Light
Length of Day
Tomorrow will be .
, % of the Moon is Illuminated

Today's Extremes

State Highs State Lows

Community

WunderPhotos

Upload Photos

1,851,841 photos uploaded!

WunderBlogs® & News

Nearby

Air Quality

  Air Quality AQ Index Pollutant
Not available.

Snow Depth

Station Depth Elevation

Earthquake Activity

City Distance Mag. Time & Date
Minimum magnitude displayed is 2.5.

Coastal Water Temperatures

Place Temperature

Stations

Nearby Weather Stations

Station Location Temp. Windchill Dew Point Humidity Wind Precip. Elev Updated Type